Tracking 18032 objects as of 26-March-2017
HD Live streaming from Space Station
objects crossing your sky now

CZ-3A DEB

Track CZ-3A DEB now!


NORAD ID: 35557
Int'l Code: 2007-003R
Perigee: 405.6 km
Apogee: 29,444.3 km
Inclination: 23.0 °
Period: 515.5 minutes
Semi major axis: 21295 km
RCS: 0.1574 m2 (medium)
Launch date: February 2, 2007
Source: People's Republic of China (PRC)
Launch site: Xichang Space Center, China (XSC)

Note: This is SATELLITE DEBRIS
Your satellite tracking list
Your tracking list is empty





NASA's NSSDC Master Catalog

Two Line Element Set (TLE):
1 35557U 07003R   17084.52950909 +.00001150 +00000-0 +23098-2 0  9995
2 35557 023.0348 062.9358 6817902 085.2535 343.4849 02.79356215077112
Source of the keplerian elements: AFSPC